EW9732 Weather Reports


time (UTC)temp
F
wind
direction
speed
knots
gust
knots
rain 1hr
in
rain 24hr
in
rain mn
in
humidity
%
barometer
mb
20260906220025 92 110 0.9 11.3 0.00 0.00 0.00 29 1001.2
20260906214535 92 96 0.9 9.6 0.00 0.00 0.00 30 1001.4
20260906213022 92 26 2.6 9.6 0.00 0.00 0.00 29 1001.7
20260906211520 92 123 2.6 8.7 0.00 0.00 0.00 29 1001.8
20260906210028 92 117 0.9 4.3 0.00 0.00 0.00 29 1002.0
20260906204516 91 58 0.9 4.3 0.00 0.00 0.00 30 1002.3
20260906203009 90 146 0.0 8.7 0.00 0.00 0.00 30 1002.5
20260906201508 90 68 0.9 4.3 0.00 0.00 0.00 31 1002.7
20260906200004 89 50 0.0 3.5 0.00 0.00 0.00 33 1003.0
20260906194502 88 172 0.9 6.1 0.00 0.00 0.00 31 1003.4
20260906193059 88 103 1.7 6.1 0.00 0.00 0.00 32 1003.6
20260906191558 87 122 0.9 7.0 0.00 0.00 0.00 33 1003.9
20260906190052 86 138 0.0 4.3 0.00 0.00 0.00 36 1004.1
20260906184549 85 134 2.6 6.1 0.00 0.00 0.00 38 1004.5
20260906183046 84 107 0.9 5.2 0.00 0.00 0.00 38 1004.8
20260906181545 83 124 0.9 5.2 0.00 0.00 0.00 39 1005.1
20260906180041 82 70 0.9 4.3 0.00 0.00 0.00 42 1005.2
20260906174540 82 83 0.9 2.6 0.00 0.00 0.00 42 1005.6
20260906173048 81 146 0.0 1.7 0.00 0.00 0.00 43 1005.9
20260906171534 80 302 0.0 2.6 0.00 0.00 0.00 45 1006.3
20260906170034 80 52 0.0 2.6 0.00 0.00 0.00 46 1006.5
20260906164530 78 104 0.0 1.7 0.00 0.00 0.00 48 1006.9
20260906163027 77 262 0.0 1.7 0.00 0.00 0.00 50 1007.0
20260906161529 76 132 0.0 1.7 0.00 0.00 0.00 49 1006.9
20260906160031 75 82 0.0 2.6 0.00 0.00 0.00 55 1006.8
20260906154535 74 34 0.0 4.3 0.00 0.00 0.00 60 1006.8
20260906153022 74 64 0.0 0.0 0.00 0.00 0.00 59 1007.1
20260906151518 72 150 0.0 0.0 0.00 0.00 0.00 61 1007.2
20260906150021 71 290 0.0 0.0 0.00 0.00 0.00 63 1007.4
20260906144518 70 272 0.0 0.0 0.00 0.00 0.00 64 1007.4
20260906143016 69 312 0.0 0.9 0.00 0.00 0.00 65 1007.3
20260906141516 68 274 0.0 0.0 0.00 0.00 0.00 68 1007.4
20260906140018 67 271 0.0 1.7 0.00 0.00 0.00 70 1007.3
20260906134515 65 214 0.0 0.0 0.00 0.00 0.00 74 1007.5
20260906133014 66 214 0.0 0.0 0.00 0.00 0.00 70 1007.4
20260906131516 64 98 0.0 0.0 0.00 0.00 0.00 78 1007.2
20260906130028 61 98 0.0 0.0 0.00 0.00 0.00 82 1007.2
20260906124516 61 98 0.0 0.0 0.00 0.00 0.00 81 1007.0
20260906123014 61 98 0.0 0.0 0.00 0.00 0.00 80 1007.0
20260906121509 61 98 0.0 0.0 0.00 0.00 0.00 79 1007.0
20260906120007 61 98 0.0 0.0 0.00 0.00 0.00 78 1007.0
20260906114507 61 98 0.0 0.0 0.00 0.00 0.00 76 1007.0
20260906113004 62 98 0.0 0.0 0.00 0.00 0.00 74 1006.9
20260906111502 62 98 0.0 0.0 0.00 0.00 0.00 72 1006.8
20260906110100 62 98 0.0 0.0 0.00 0.00 0.00 71 1006.7
20260906104557 62 98 0.0 0.0 0.00 0.00 0.00 70 1006.5
20260906103056 62 98 0.0 0.0 0.00 0.00 0.00 70 1006.3
20260906101553 63 98 0.0 0.0 0.00 0.00 0.00 68 1006.1
20260906100050 64 98 0.0 0.0 0.00 0.00 0.00 67 1006.3
20260906094548 64 98 0.0 0.0 0.00 0.00 0.00 66 1006.2
20260906093048 64 98 0.0 0.0 0.00 0.00 0.00 65 1006.3
20260906091544 65 98 0.0 0.0 0.00 0.00 0.00 63 1006.1
20260906090041 66 98 0.0 0.0 0.00 0.00 0.00 61 1005.9
20260906084538 67 98 0.0 0.0 0.00 0.00 0.00 58 1005.7
20260906083040 68 98 0.0 0.0 0.00 0.00 0.00 56 1005.6
20260906081536 70 98 0.0 0.0 0.00 0.00 0.00 52 1005.7
20260906080029 71 217 0.0 2.6 0.00 0.00 0.00 51 1005.7
20260906074527 71 230 0.0 3.5 0.00 0.00 0.00 51 1005.6
20260906073027 71 237 0.0 2.6 0.00 0.00 0.00 51 1005.5
20260906071525 71 158 0.0 2.6 0.00 0.00 0.00 51 1005.5
20260906070023 71 226 0.0 2.6 0.00 0.00 0.00 51 1005.2
20260906064522 72 283 0.0 0.0 0.00 0.00 0.00 48 1005.2
20260906063017 73 263 0.0 2.6 0.00 0.00 0.00 46 1005.4
20260906061513 73 231 0.0 1.7 0.00 0.00 0.00 44 1005.9
20260906060009 74 127 0.0 3.5 0.00 0.00 0.00 43 1006.1
20260906054509 75 119 0.0 1.7 0.00 0.00 0.00 41 1006.1
20260906053009 76 278 0.0 0.9 0.00 0.00 0.00 39 1006.1
20260906051509 74 288 0.9 3.5 0.00 0.00 0.00 41 1006.1
20260906050023 75 73 0.0 0.9 0.00 0.00 0.00 41 1006.1
20260906044507 75 103 0.0 0.0 0.00 0.00 0.00 40 1006.2
20260906043010 75 103 0.0 0.0 0.00 0.00 0.00 39 1006.2
20260906041507 75 103 0.0 1.7 0.00 0.00 0.00 38 1006.0
20260906040007 73 120 0.0 1.7 0.00 0.00 0.00 41 1005.7
20260906034508 73 98 0.0 0.0 0.00 0.00 0.00 42 1004.7
20260906033005 74 98 0.0 0.0 0.00 0.00 0.00 40 1004.7
20260906031505 74 98 0.0 0.0 0.00 0.00 0.00 39 1004.5
20260906030005 76 98 0.0 0.0 0.00 0.00 0.00 37 1004.1
20260906024505 77 98 0.0 0.0 0.00 0.00 0.00 36 1003.9
20260906023005 79 98 0.0 0.0 0.00 0.00 0.00 33 1003.9
20260906021503 81 98 0.0 0.9 0.00 0.00 0.00 29 1003.7
20260906020004 82 57 0.0 1.7 0.00 0.00 0.00 27 1003.4
20260906014503 83 300 0.0 2.6 0.00 0.00 0.00 27 1003.1
20260906013101 83 298 0.0 3.5 0.00 0.00 0.00 26 1002.8
20260906011605 84 20 0.0 0.0 0.00 0.00 0.00 29 1002.6
20260906010059 86 20 0.0 0.0 0.00 0.00 0.00 26 1002.6
20260906004559 87 20 0.0 0.0 0.00 0.00 0.00 23 1002.6
20260906003106 89 304 0.0 0.9 0.00 0.00 0.00 22 1002.6
20260906001557 89 23 0.0 4.3 0.00 0.00 0.00 21 1002.5
20260906000056 90 20 0.0 2.6 0.00 0.00 0.00 21 1002.5
20260905234611 91 269 0.0 3.5 0.00 0.00 0.00 20 1002.4
20260905233054 92 27 2.6 5.2 0.00 0.00 0.00 19 1002.4
20260905231553 92 323 0.0 4.3 0.00 0.00 0.00 19 1002.4
20260905230053 93 62 0.0 3.5 0.00 0.00 0.00 20 1002.4
20260905224551 93 89 0.0 3.5 0.00 0.00 0.00 20 1002.3
20260905223052 93 13 0.0 4.3 0.00 0.00 0.00 20 1002.3
20260905221550 93 171 0.0 4.3 0.00 0.00 0.00 19 1002.4